[[{"header":{"parameterUnit":"m.s-1","parameterCategory":1,"la1":30.2991,"la2":30.254,"lo1":-89.0895,"lo2":-89.0444,"dy":0.0017,"dx":0.0017,"nx":28,"ny":28,"refTime":"2023-10-25T09:00:00:Z","depth":0,"parameterNumber":2,"parameterNumberName":"U-component_of_WINDS"},"data":[0,0,0,0,0,0,0,0,0,0,0,0,0,0,0,0,0,0,0,0,0,0,0,0,0,0,0,0,0,0,0,0,0,0,0,0,0,0,0,0,0,0,0,0,0,0,0,0,0,0,0,0,0,0,0,0,0,0,-5.8821,-5.8822,0,-5.8925,-5.8926,-5.8927,-5.8923,-5.8921,-5.892,-5.8918,-5.9022,-5.9026,-5.903,0,0,0,0,0,0,0,0,0,0,0,0,0,-5.8619,-5.8623,-5.8821,-5.8822,-5.8824,-5.8925,-5.8926,-5.8928,-5.8923,-5.8921,-5.8919,-5.8918,-5.9021,-5.9026,-5.9031,0,0,0,0,0,0,0,0,0,0,0,0,0,-5.8713,-5.8624,-5.8821,-5.8833,-5.8836,-5.8925,-5.8926,-5.8928,-5.8923,-5.8921,-5.8919,-5.8917,-5.9019,-5.9025,-5.9031,-5.9114,0,0,-5.905,-5.9053,0,0,0,0,0,0,0,0,-5.8708,-5.8721,-5.883,-5.8833,-5.8835,-5.8909,-5.8893,-5.899,-5.8924,-5.889,-5.8918,-5.8916,-5.8986,-5.8995,-5.9019,-5.9119,-5.9123,-5.9051,-5.9055,-5.9057,-5.9059,0,0,0,0,0,0,0,-5.8701,-5.8716,-5.8862,-5.8832,-5.8835,-5.8834,-5.8845,-5.8912,-5.8949,-5.8893,-5.8893,-5.8905,-5.8987,-5.9013,-5.9021,-5.9125,-5.9051,-5.9056,-5.906,-5.9062,-5.93,-5.9303,0,0,0,0,0,0,-5.8692,-5.8711,-5.8859,-5.8865,-5.8765,-5.884,-5.8852,-5.8887,-5.8948,-5.8955,-5.8907,-5.8904,-5.9004,-5.9014,-5.9025,-5.9126,-5.9057,-5.9063,-5.9067,-5.9298,-5.9301,-5.9304,0,0,0,0,0,0,-5.8688,-5.8705,-5.8855,-5.8788,-5.8807,-5.8846,-5.8885,-5.889,-5.8916,-5.8959,-5.8965,-5.8926,-5.9002,-5.9016,-5.9093,-5.913,-5.9066,-5.9071,-5.9295,-5.9299,-5.9302,-5.9328,0,0,0,0,0,0,-5.8682,-5.8704,-5.8735,-5.8789,-5.8811,-5.892,-5.8888,-5.8894,-5.8927,-5.8925,-5.8979,-5.8986,-5.9002,-5.9083,-5.9099,-5.9137,-5.9076,-5.9291,-5.9296,-5.9301,-5.9324,-5.9333,-5.934,0,0,0,0,0,-5.8675,-5.8737,-5.8736,-5.8754,-5.885,-5.8922,-5.8934,-5.8951,-5.893,-5.8962,-5.8991,-5.8984,-5.9124,-5.9091,-5.9108,-5.9149,-5.9289,-5.9295,-5.9301,-5.9321,-5.9331,-5.934,0,0,0,0,0,0,-5.8683,-5.8744,-5.8744,-5.8825,-5.8869,-5.8921,-5.896,-5.8962,-5.9011,-5.9006,-5.9026,-5.9038,-5.9115,-5.914,-5.9102,-5.9234,-5.9204,-5.9214,-5.9213,-5.9223,-5.9231,-5.9222,-5.9081,0,0,0,0,0,-5.8696,-5.8749,-5.8799,-5.8866,-5.8888,-5.8921,-5.8953,-5.8963,-5.9009,-5.9026,-5.906,-5.9104,-5.9158,-5.9193,-5.9245,-5.933,-5.9342,-5.9367,-5.9375,-5.9381,-5.9388,-5.9436,-5.9448,-5.9323,-5.9323,-5.9323,0,0,-5.8719,-5.8759,-5.8791,-5.8869,-5.8903,-5.8959,-5.8936,-5.8994,-5.9036,-5.9035,-5.9109,-5.9136,-5.9187,-5.9268,-5.9306,-5.9291,-5.9426,-5.9388,-5.9393,-5.9396,-5.9443,-5.9455,-5.9466,-5.9327,-5.9326,-5.9325,0,0,-5.879,-5.8826,-5.8886,-5.8923,-5.8977,-5.9,-5.9015,-5.9069,-5.9087,-5.9162,-5.9164,-5.9214,-5.9306,-5.9343,-5.9374,-5.9466,-5.9462,-5.9483,-5.9521,-5.9569,-5.9579,-5.9587,-5.962,-5.9631,-5.949,-5.949,-5.9491,0,-5.8811,-5.8895,-5.8917,-5.8977,-5.9011,-5.9017,-5.9079,-5.9113,-5.9181,-5.9205,-5.919,-5.9309,-5.9343,-5.9434,-5.9457,-5.9482,-5.95,-5.9474,-5.9576,-5.9585,-5.9593,-5.9624,-5.9636,-5.9492,-5.9492,-5.9492,-5.9492,0,-5.8919,-5.8978,-5.902,-5.9088,-5.9128,-5.9189,-5.922,-5.9259,-5.9268,-5.9293,-5.9371,-5.9414,-5.9476,-5.9499,-5.9507,-5.9592,-5.9582,-5.9571,-5.9541,-5.9607,-5.9636,-5.9648,-5.9495,-5.9495,-5.9494,-5.9493,0,0,-5.8991,-5.9076,-5.909,-5.9123,-5.9186,-5.9231,-5.9295,-5.9357,-5.9389,-5.9438,-5.9491,-5.9572,-5.9564,-5.9599,-5.9613,-5.9655,-5.9725,-5.9639,-5.964,-5.9652,-5.9822,-5.9827,-5.9841,-5.9726,-5.9728,-5.973,-5.9817,0,-5.9068,-5.9178,-5.9203,-5.9298,-5.9353,-5.9363,-5.9417,-5.9463,-5.9489,-5.954,-5.957,-5.9627,-5.9612,-5.9634,-5.9676,-5.9707,-5.9759,-5.9702,-5.9774,-5.9776,-5.9757,-5.9856,-5.9861,-5.9941,-5.9829,-5.9831,-5.9832,0,-5.9169,-5.9222,-5.9324,-5.9384,-5.9408,-5.9456,-5.9517,-5.9566,-5.9619,-5.9636,-5.9679,-5.9689,-5.9756,-5.9727,-5.9819,-5.978,-5.9812,-5.9833,-5.9836,-5.984,-5.9805,-5.9861,-5.9967,-5.9978,-5.9851,-5.9849,-5.9848,0,-5.921,-5.9308,-5.9382,-5.9409,-5.9481,-5.9515,-5.9547,-5.9598,-5.9635,-5.969,-5.9714,-5.9775,-5.9808,-5.9856,-5.9883,-5.9859,-5.9974,-5.9946,-5.9989,-5.9988,-6.0008,-6.0006,-6.0119,-6.0035,-6.0035,-6.0034,-6.0034,0,-5.929,-5.9351,-5.9401,-5.9446,-5.9516,-5.9546,-5.9614,-5.9646,-5.9693,-5.9745,-5.9758,-5.9807,-5.9842,-5.9896,-5.9919,-5.9992,-6.0007,-6.0022,-6.0027,-6.0019,-6.0017,-6.0037,-6.0031,-6.0038,-6.0037,-6.0036,-6.0036,0,-5.9344,-5.9381,-5.9462,-5.9526,-5.9543,-5.9592,-5.9646,-5.9691,-5.9721,-5.9787,-5.9804,-5.985,-5.9915,-5.9949,-6.0029,-6.0045,-6.0127,-6.013,-6.0109,-6.011,-6.015,-6.0145,-6.0277,-6.0295,-6.0202,-6.0202,-6.0203,0,-5.939,-5.9438,-5.9509,-5.9545,-5.9578,-5.9637,-5.9676,-5.9709,-5.9749,-5.9817,-5.9854,-5.992,-5.9974,-6.0078,-6.0118,-6.0181,-6.0184,-6.0226,-6.0193,-6.0185,-6.0182,-6.0178,-6.0183,-6.023,-6.0231,-6.0232,-6.0232,0,-5.9469,-5.9486,-5.9542,-5.9607,-5.9654,-5.9706,-5.9757,-5.9786,-5.9828,-5.9873,-5.9941,-5.9983,-6.0068,-6.0133,-6.02,-6.0233,-6.024,-6.0244,-6.0257,-6.0247,-6.0232,-6.0239,-6.0122,-6.0239,-6.0238,-6.0238,-6.0237,-6.0237,-5.952,-5.9564,-5.9621,-5.9684,-5.9728,-5.9776,-5.9822,-5.986,-5.9917,-5.9988,-6.0006,-6.0077,-6.0134,-6.0224,-6.026,-6.0317,-6.0308,-6.0327,-6.0331,-6.0335,-6.0336,-6.0227,-6.033,-6.033,-6.033,-6.0329,-6.0329,0,-5.9597,-5.9636,-5.9695,-5.9767,-5.9818,-5.9824,-5.9883,-5.9924,-5.9987,-6.004,-6.0095,-6.0174,-6.0239,-6.0288,-6.0355,-6.0391,-6.0396,-6.0407,-6.0403,-6.0411,-6.034,-6.0321,-6.0402,-6.0402,-6.0402,-6.0402,-6.0402,-6.0402,-5.9643,-5.9718,-5.9743,-5.9841,-5.9879,-5.995,-5.9983,-6.0029,-6.0072,-6.016,-6.0215,-6.0247,-6.0299,-6.0371,-6.0432,-6.0445,-6.0467,-6.0478,-6.0491,-6.0423,-6.0415,-6.0408,-6.039,-6.0484,-6.0484,-6.0556,-6.0557,-6.0557]},{"header":{"parameterUnit":"m.s-1","parameterCategory":1,"la1":30.2991,"la2":30.254,"lo1":-89.0895,"lo2":-89.0444,"dy":0.0017,"dx":0.0017,"nx":28,"ny":28,"refTime":"2023-10-25T09:00:00:Z","depth":0,"parameterNumber":3,"parameterNumberName":"V-component_of_WINDS"},"data":[0,0,0,0,0,0,0,0,0,0,0,0,0,0,0,0,0,0,0,0,0,0,0,0,0,0,0,0,0,0,0,0,0,0,0,0,0,0,0,0,0,0,0,0,0,0,0,0,0,0,0,0,0,0,0,0,0,0,2.5567,2.5568,0,2.565,2.5651,2.5652,2.5748,2.5749,2.5751,2.5752,2.5828,2.5829,2.583,0,0,0,0,0,0,0,0,0,0,0,0,0,2.5487,2.5488,2.5567,2.5568,2.5569,2.565,2.5651,2.5652,2.5747,2.5749,2.5751,2.5753,2.5828,2.5829,2.583,0,0,0,0,0,0,0,0,0,0,0,0,0,2.554,2.5488,2.5567,2.5627,2.5633,2.565,2.5651,2.5653,2.5747,2.5749,2.5751,2.5753,2.5828,2.5829,2.583,2.5792,0,0,2.5833,2.5833,0,0,0,0,0,0,0,0,2.5537,2.5543,2.5617,2.5623,2.563,2.5691,2.5651,2.5699,2.5747,2.5703,2.5752,2.5755,2.578,2.5785,2.5796,2.5796,2.5799,2.5833,2.5834,2.5834,2.5834,0,0,0,0,0,0,0,2.5533,2.554,2.56,2.5618,2.5626,2.5648,2.5658,2.5661,2.5728,2.5707,2.5715,2.5724,2.5784,2.5795,2.5798,2.58,2.5833,2.5834,2.5835,2.5835,2.5778,2.5776,0,0,0,0,0,0,2.5522,2.5536,2.5597,2.5602,2.5588,2.5648,2.5659,2.5669,2.5729,2.574,2.5722,2.5728,2.5792,2.5797,2.5801,2.5765,2.5834,2.5835,2.5836,2.578,2.5778,2.5775,0,0,0,0,0,0,2.5519,2.5526,2.5594,2.5572,2.5582,2.5647,2.5657,2.5669,2.568,2.574,2.5751,2.572,2.5794,2.58,2.5796,2.5768,2.5836,2.5836,2.5783,2.5779,2.5776,2.5688,0,0,0,0,0,0,2.5517,2.5525,2.5512,2.5571,2.5583,2.5587,2.5656,2.5669,2.5683,2.5691,2.5741,2.5752,2.5796,2.5794,2.5797,2.5771,2.5837,2.5785,2.5781,2.5777,2.5693,2.5682,2.5672,0,0,0,0,0,2.5514,2.5481,2.5511,2.5517,2.5568,2.5586,2.5592,2.5647,2.568,2.5667,2.5706,2.575,2.5771,2.5792,2.5796,2.5771,2.5787,2.5782,2.5778,2.5698,2.5684,2.5672,0,0,0,0,0,0,2.5412,2.5489,2.5523,2.5509,2.5541,2.5602,2.5587,2.563,2.565,2.5657,2.5721,2.5731,2.572,2.5745,2.5767,2.574,2.5786,2.5781,2.5724,2.5711,2.57,2.5695,2.5838,0,0,0,0,0,2.5389,2.5399,2.5465,2.5446,2.546,2.5521,2.553,2.557,2.5604,2.5617,2.5656,2.5685,2.5699,2.5706,2.5722,2.5698,2.5711,2.5682,2.5672,2.5663,2.5658,2.5651,2.5639,2.576,2.576,2.576,0,0,2.534,2.5383,2.5384,2.5427,2.5456,2.5464,2.5531,2.5535,2.5542,2.5617,2.5617,2.5646,2.5683,2.567,2.5666,2.569,2.5629,2.5657,2.5649,2.565,2.5645,2.5633,2.5623,2.5756,2.5757,2.5757,0,0,2.5255,2.5288,2.5278,2.5307,2.5352,2.5394,2.5391,2.5448,2.5471,2.5473,2.5531,2.5538,2.5559,2.5585,2.5601,2.5531,2.5573,2.5534,2.5478,2.547,2.546,2.5452,2.5429,2.542,2.5529,2.5529,2.5529,0,2.5186,2.5203,2.5266,2.5269,2.5286,2.5359,2.535,2.5374,2.542,2.543,2.5458,2.549,2.552,2.5515,2.5499,2.5508,2.5508,2.5528,2.5457,2.545,2.5443,2.5422,2.5413,2.5524,2.5525,2.5525,2.5526,0,2.5119,2.5129,2.5115,2.5164,2.518,2.5175,2.5237,2.5245,2.5285,2.5323,2.5325,2.5365,2.5391,2.5393,2.5429,2.5395,2.5409,2.5446,2.5493,2.5426,2.5407,2.5399,2.5517,2.5519,2.552,2.5522,0,0,2.4969,2.5056,2.505,2.5075,2.5132,2.5141,2.5141,2.5171,2.5178,2.5208,2.521,2.523,2.5266,2.5284,2.5324,2.5317,2.5262,2.5355,2.5357,2.5338,2.5229,2.5202,2.5191,2.5291,2.5289,2.5288,2.5226,0,2.4895,2.4903,2.4962,2.4952,2.4964,2.5036,2.5036,2.5071,2.5108,2.5122,2.5161,2.5175,2.5221,2.5233,2.5229,2.5269,2.5241,2.5275,2.5293,2.5293,2.5282,2.5181,2.5151,2.5091,2.5219,2.5218,2.5217,0,2.4808,2.4839,2.4832,2.4894,2.4901,2.4901,2.4936,2.4949,2.499,2.5018,2.504,2.5088,2.5092,2.5137,2.5145,2.5166,2.5177,2.5199,2.5198,2.5202,2.5251,2.5183,2.5072,2.5064,2.5206,2.5207,2.5207,0,2.4703,2.4742,2.4744,2.4762,2.4834,2.4833,2.4862,2.4906,2.4922,2.4951,2.4963,2.499,2.5005,2.5026,2.508,2.5107,2.5081,2.513,2.5104,2.5103,2.5095,2.5095,2.4985,2.51,2.51,2.51,2.5101,0,2.4614,2.4607,2.4698,2.4699,2.4694,2.4762,2.4755,2.4791,2.483,2.4839,2.4902,2.4908,2.4979,2.4993,2.5035,2.5036,2.5042,2.5064,2.5075,2.5059,2.5056,2.5067,2.5073,2.5098,2.5099,2.5099,2.51,0,2.4494,2.4555,2.4563,2.4632,2.465,2.4643,2.4702,2.4705,2.4748,2.4759,2.4765,2.483,2.4851,2.4908,2.4941,2.497,2.496,2.498,2.4946,2.4954,2.4925,2.4928,2.4819,2.481,2.4929,2.4928,2.4927,0,2.4434,2.4432,2.4503,2.4516,2.4544,2.4562,2.458,2.4647,2.4663,2.4714,2.4711,2.4738,2.4763,2.4793,2.4842,2.487,2.4892,2.4852,2.4896,2.4881,2.4893,2.4894,2.4895,2.4842,2.4841,2.4839,2.4838,0,2.4322,2.4354,2.4379,2.4416,2.4437,2.4468,2.4502,2.4508,2.4584,2.4598,2.4623,2.4643,2.4681,2.4707,2.4743,2.4772,2.4817,2.4825,2.482,2.4804,2.4786,2.4797,2.4922,2.4826,2.4828,2.4828,2.4829,2.483,2.4232,2.4235,2.4287,2.4314,2.4348,2.438,2.4389,2.4434,2.4457,2.4496,2.4533,2.4554,2.4599,2.4653,2.4679,2.4696,2.4719,2.4712,2.4711,2.4708,2.4702,2.4783,2.4702,2.4703,2.4703,2.4703,2.4704,0,2.4125,2.4163,2.4188,2.4237,2.4258,2.4304,2.4346,2.436,2.4379,2.4418,2.4444,2.4473,2.45,2.4554,2.4585,2.4589,2.4611,2.4595,2.4595,2.4602,2.4678,2.468,2.4577,2.4577,2.4577,2.4577,2.4577,2.4577,2.4072,2.408,2.4118,2.4145,2.4183,2.4207,2.4227,2.4257,2.429,2.4322,2.4346,2.4382,2.4427,2.4464,2.4491,2.4506,2.4515,2.4492,2.4514,2.4584,2.4596,2.4607,2.4609,2.4493,2.4493,2.4437,2.4436,2.4436]}]]